{"data":{"norad_id":64433,"epoch":"2026-05-24T23:56:12.386112Z","epoch_age_seconds":71683,"freshness":"FRESH","line1":"1 64433U 25129X   26144.99736558  .00002285  00000+0  19923-3 0  9991","line2":"2 64433  70.0005 242.2032 0003542 268.8852  91.1901 14.98335023 52659","mean_motion":14.98335023,"eccentricity":0.0003542,"inclination_deg":70.0005,"raan_deg":242.2032,"arg_perigee_deg":268.8852,"mean_anomaly_deg":91.1901,"bstar":0.00019923,"rev_number":5265,"period_min":96.106676937765,"perigee_km":569.57860495454,"apogee_km":574.50211059478,"semimajor_km":6950.1773577747,"source":"CELESTRAK","updated_at":"2026-05-25T13:38:20.444332Z"}}